BEL4QA LOWW-EBBR

Flight info

Callsign BEL4QA
Flight time 1h 26m
Altitude 36000
Route MEDIX1E MEDIX DCT RENKA DCT INBED DCT TEKTU DCT TESGA DCT UMUPU T880 BATTY BATTY7A
Aircraft A319/M-SDE3FGHIRWY/LB1

Departure

Time 2026-05-05 20:29
Airport Vienna International Airport (LOWW)

Arrival

Time 2026-05-05 21:55
Airport Brussels Airport (EBBR)
Time Latitude Longitude Altitude Speed Heading
2026-05-05 19:52 48.11425 16.57129 618 ft 0 kts 206°
2026-05-05 20:24 48.11413 16.57120 620 ft 6 kts 205°
2026-05-05 20:24 48.11382 16.57045 611 ft 12 kts 274°
2026-05-05 20:25 48.11423 16.56898 612 ft 20 kts 296°
2026-05-05 20:25 48.11492 16.56689 613 ft 25 kts 296°
2026-05-05 20:25 48.11570 16.56450 608 ft 25 kts 296°
2026-05-05 20:25 48.11639 16.56239 611 ft 21 kts 296°
2026-05-05 20:26 48.11696 16.56063 620 ft 16 kts 295°
2026-05-05 20:26 48.11743 16.55917 611 ft 18 kts 296°
2026-05-05 20:26 48.11820 16.55689 617 ft 26 kts 296°
2026-05-05 20:26 48.11895 16.55429 612 ft 28 kts 289°
2026-05-05 20:27 48.11923 16.55186 616 ft 21 kts 234°
2026-05-05 20:27 48.11952 16.54994 613 ft 19 kts 296°
2026-05-05 20:27 48.12013 16.54808 619 ft 21 kts 296°
2026-05-05 20:27 48.12081 16.54601 609 ft 22 kts 296°
2026-05-05 20:28 48.12153 16.54381 616 ft 24 kts 296°
2026-05-05 20:28 48.12225 16.54154 604 ft 23 kts 287°
2026-05-05 20:28 48.12159 16.53982 603 ft 21 kts 193°
2026-05-05 20:28 48.12052 16.54081 610 ft 24 kts 116°
2026-05-05 20:29 48.11871 16.54592 612 ft 91 kts 115°
2026-05-05 20:29 48.11499 16.55735 630 ft 149 kts 119°
2026-05-05 20:29 48.11070 16.57123 1315 ft 143 kts 123°
2026-05-05 20:29 48.10669 16.58439 2085 ft 136 kts 128°
2026-05-05 20:30 48.10244 16.59732 2602 ft 146 kts 130°
2026-05-05 20:30 48.09734 16.61184 2951 ft 169 kts 128°
2026-05-05 20:30 48.09155 16.62853 3311 ft 192 kts 124°
2026-05-05 20:30 48.08331 16.64530 3596 ft 209 kts 152°
2026-05-05 20:31 48.06913 16.65027 4018 ft 220 kts 193°
2026-05-05 20:31 48.05445 16.64103 4525 ft 241 kts 211°
2026-05-05 20:31 48.03979 16.62776 5347 ft 251 kts 218°
2026-05-05 20:31 48.02938 16.60678 6185 ft 262 kts 251°
2026-05-05 20:32 48.02886 16.57932 7063 ft 272 kts 279°
2026-05-05 20:32 48.03514 16.55240 8054 ft 278 kts 290°
2026-05-05 20:32 48.04375 16.52641 9062 ft 281 kts 293°
2026-05-05 20:32 48.05287 16.50041 9965 ft 285 kts 293°
2026-05-05 20:33 48.06203 16.47328 10471 ft 303 kts 292°
2026-05-05 20:33 48.07131 16.44391 10928 ft 320 kts 292°
2026-05-05 20:33 48.08049 16.41310 11660 ft 327 kts 290°
2026-05-05 20:33 48.08948 16.38161 12479 ft 331 kts 290°
2026-05-05 20:34 48.09838 16.34957 13242 ft 336 kts 290°
2026-05-05 20:34 48.10735 16.31695 13976 ft 341 kts 290°
2026-05-05 20:34 48.11640 16.28398 14691 ft 344 kts 289°
2026-05-05 20:34 48.12390 16.24989 15406 ft 346 kts 284°
2026-05-05 20:35 48.13098 16.21530 16103 ft 350 kts 284°
2026-05-05 20:35 48.13815 16.18033 16814 ft 353 kts 284°
2026-05-05 20:35 48.14539 16.14506 17527 ft 356 kts 284°
2026-05-05 20:35 48.15274 16.10944 18202 ft 360 kts 284°
2026-05-05 20:36 48.16016 16.07348 18818 ft 363 kts 284°
2026-05-05 20:36 48.16764 16.03717 19427 ft 366 kts 284°
2026-05-05 20:36 48.17514 16.00050 20037 ft 370 kts 284°
2026-05-05 20:36 48.18268 15.96354 20665 ft 373 kts 284°
2026-05-05 20:37 48.19025 15.92626 21261 ft 376 kts 284°
2026-05-05 20:37 48.19791 15.88861 21855 ft 379 kts 284°
2026-05-05 20:37 48.20564 15.85058 22430 ft 383 kts 284°
2026-05-05 20:37 48.21344 15.81216 23005 ft 387 kts 284°
2026-05-05 20:38 48.22128 15.77336 23533 ft 391 kts 284°
2026-05-05 20:38 48.22916 15.73423 24015 ft 394 kts 284°
2026-05-05 20:38 48.23708 15.69475 24500 ft 396 kts 284°
2026-05-05 20:38 48.24504 15.65501 24971 ft 399 kts 284°
2026-05-05 20:39 48.25304 15.61504 25442 ft 401 kts 284°
2026-05-05 20:39 48.26110 15.57484 25926 ft 404 kts 284°
2026-05-05 20:39 48.26919 15.53433 26382 ft 406 kts 284°
2026-05-05 20:39 48.27734 15.49358 26829 ft 409 kts 284°
2026-05-05 20:40 48.28560 15.45205 27286 ft 411 kts 283°
2026-05-05 20:40 48.29373 15.41085 27737 ft 413 kts 283°
2026-05-05 20:40 48.30136 15.36912 28182 ft 415 kts 282°
2026-05-05 20:40 48.30834 15.32698 28624 ft 417 kts 281°
2026-05-05 20:41 48.31497 15.28444 29064 ft 419 kts 280°
2026-05-05 20:41 48.32150 15.24162 29504 ft 422 kts 280°
2026-05-05 20:41 48.32810 15.19861 29909 ft 424 kts 280°
2026-05-05 20:41 48.33485 15.15532 30294 ft 426 kts 280°
2026-05-05 20:42 48.34170 15.11196 30661 ft 428 kts 281°
2026-05-05 20:42 48.34863 15.06840 31015 ft 429 kts 281°
2026-05-05 20:42 48.35560 15.02468 31355 ft 431 kts 281°
2026-05-05 20:42 48.36261 14.98076 31696 ft 433 kts 281°
2026-05-05 20:43 48.36956 14.93690 32224 ft 430 kts 281°
2026-05-05 20:43 48.37642 14.89331 32739 ft 427 kts 281°
2026-05-05 20:43 48.38320 14.84989 33233 ft 426 kts 281°
2026-05-05 20:43 48.38995 14.80658 33729 ft 424 kts 281°
2026-05-05 20:44 48.39666 14.76350 34160 ft 423 kts 280°
2026-05-05 20:44 48.40336 14.72036 34521 ft 423 kts 280°
2026-05-05 20:44 48.41002 14.67731 34897 ft 422 kts 280°
2026-05-05 20:44 48.41669 14.63427 35275 ft 421 kts 280°
2026-05-05 20:45 48.42990 14.54860 35955 ft 420 kts 280°
2026-05-05 20:45 48.44292 14.46387 36022 ft 411 kts 280°
2026-05-05 20:46 48.45562 14.38036 36028 ft 409 kts 280°
2026-05-05 20:46 48.46824 14.29685 36028 ft 409 kts 279°
2026-05-05 20:47 48.48083 14.21322 36034 ft 409 kts 279°
2026-05-05 20:47 48.49335 14.12960 36031 ft 409 kts 279°
2026-05-05 20:48 48.50578 14.04596 36035 ft 409 kts 279°
2026-05-05 20:48 48.51814 13.96240 36046 ft 408 kts 279°
2026-05-05 20:49 48.53052 13.87877 36045 ft 408 kts 278°
2026-05-05 20:49 48.54283 13.79512 36045 ft 408 kts 278°
2026-05-05 20:50 48.55508 13.71145 36037 ft 408 kts 278°
2026-05-05 20:50 48.56722 13.62768 36041 ft 409 kts 278°
2026-05-05 20:51 48.57926 13.54381 36069 ft 409 kts 278°
2026-05-05 20:51 48.59876 13.46267 36057 ft 416 kts 292°
2026-05-05 20:52 48.62467 13.38438 36048 ft 416 kts 292°
2026-05-05 20:52 48.65034 13.30590 36044 ft 417 kts 291°
2026-05-05 20:53 48.67589 13.22721 36041 ft 417 kts 291°
2026-05-05 20:53 48.70146 13.14851 36069 ft 417 kts 291°
2026-05-05 20:54 48.72706 13.06969 36059 ft 417 kts 291°
2026-05-05 20:54 48.75266 12.99081 36051 ft 417 kts 291°
2026-05-05 20:55 48.77816 12.91182 36048 ft 417 kts 291°
2026-05-05 20:55 48.80351 12.83274 36046 ft 417 kts 291°
2026-05-05 20:56 48.82889 12.75354 36043 ft 418 kts 291°
2026-05-05 20:56 48.85420 12.67411 36044 ft 418 kts 290°
2026-05-05 20:57 48.87952 12.59454 36047 ft 418 kts 290°
2026-05-05 20:57 48.90485 12.51486 36046 ft 419 kts 290°
2026-05-05 20:58 48.93008 12.43508 36047 ft 419 kts 290°
2026-05-05 20:58 48.95528 12.35521 36069 ft 419 kts 290°
2026-05-05 20:59 48.98042 12.27521 36054 ft 419 kts 290°
2026-05-05 20:59 49.00123 12.20862 36049 ft 419 kts 290°
2026-05-05 21:00 49.02632 12.12832 36044 ft 420 kts 290°
2026-05-05 21:00 49.05137 12.04801 36041 ft 420 kts 290°
2026-05-05 21:01 49.07633 11.96749 36096 ft 420 kts 290°
2026-05-05 21:01 49.10126 11.88682 36067 ft 421 kts 290°
2026-05-05 21:02 49.12609 11.80598 36063 ft 421 kts 290°
2026-05-05 21:02 49.15095 11.72500 36066 ft 421 kts 290°
2026-05-05 21:03 49.17590 11.64386 36058 ft 422 kts 290°
2026-05-05 21:03 49.20081 11.56238 36072 ft 423 kts 290°
2026-05-05 21:04 49.22566 11.48066 36043 ft 424 kts 290°
2026-05-05 21:04 49.25054 11.39865 36050 ft 425 kts 290°
2026-05-05 21:05 49.27538 11.31649 36052 ft 425 kts 290°
2026-05-05 21:05 49.30015 11.23417 36063 ft 426 kts 290°
2026-05-05 21:06 49.32490 11.15167 36087 ft 426 kts 291°
2026-05-05 21:06 49.34963 11.06905 36074 ft 427 kts 291°
2026-05-05 21:07 49.37432 10.98617 36071 ft 427 kts 290°
2026-05-05 21:07 49.40574 10.90831 36069 ft 435 kts 307°
2026-05-05 21:08 49.44477 10.83735 36071 ft 435 kts 306°
2026-05-05 21:08 49.48365 10.76592 36081 ft 436 kts 307°
2026-05-05 21:09 49.52250 10.69429 36064 ft 437 kts 307°
2026-05-05 21:09 49.56142 10.62236 36056 ft 438 kts 307°
2026-05-05 21:10 49.60039 10.55023 36054 ft 438 kts 307°
2026-05-05 21:10 49.63938 10.47799 36048 ft 438 kts 307°
2026-05-05 21:11 49.67828 10.40546 36072 ft 439 kts 307°
2026-05-05 21:11 49.71712 10.33274 36049 ft 439 kts 307°
2026-05-05 21:12 49.75601 10.25984 36039 ft 440 kts 307°
2026-05-05 21:12 49.79499 10.18683 36039 ft 440 kts 307°
2026-05-05 21:13 49.83397 10.11369 36042 ft 441 kts 307°
2026-05-05 21:13 49.87283 10.04024 36043 ft 441 kts 306°
2026-05-05 21:14 49.91161 9.96658 36058 ft 441 kts 307°
2026-05-05 21:14 49.95073 9.89245 36051 ft 441 kts 307°
2026-05-05 21:15 49.98960 9.81865 36044 ft 441 kts 307°
2026-05-05 21:15 50.02838 9.74465 36036 ft 442 kts 307°
2026-05-05 21:16 50.06711 9.67036 35957 ft 443 kts 307°
2026-05-05 21:16 50.08654 9.63303 35814 ft 443 kts 307°
2026-05-05 21:16 50.10594 9.59575 35831 ft 444 kts 307°
2026-05-05 21:17 50.14486 9.52106 35839 ft 444 kts 307°
2026-05-05 21:17 50.18374 9.44612 35825 ft 444 kts 307°
2026-05-05 21:18 50.22248 9.37103 35828 ft 444 kts 307°
2026-05-05 21:18 50.26118 9.29581 35822 ft 444 kts 306°
2026-05-05 21:19 50.29979 9.22048 35835 ft 444 kts 306°
2026-05-05 21:19 50.33645 9.14308 35821 ft 441 kts 297°
2026-05-05 21:20 50.35911 9.05490 35813 ft 436 kts 284°
2026-05-05 21:20 50.37707 8.96415 35810 ft 436 kts 284°
2026-05-05 21:21 50.39498 8.87332 35807 ft 436 kts 284°
2026-05-05 21:21 50.41290 8.78240 35808 ft 437 kts 284°
2026-05-05 21:22 50.43081 8.69146 35805 ft 437 kts 284°
2026-05-05 21:22 50.44692 8.59989 35805 ft 433 kts 276°
2026-05-05 21:23 50.45614 8.50649 35810 ft 433 kts 275°
2026-05-05 21:23 50.46549 8.41310 35809 ft 433 kts 276°
2026-05-05 21:24 50.47479 8.31960 35630 ft 435 kts 276°
2026-05-05 21:24 50.47940 8.27261 35304 ft 435 kts 276°
2026-05-05 21:24 50.48399 8.22560 34984 ft 436 kts 276°
2026-05-05 21:25 50.48860 8.17842 34667 ft 438 kts 276°
2026-05-05 21:25 50.49318 8.13118 34354 ft 437 kts 275°
2026-05-05 21:25 50.49775 8.08399 34044 ft 437 kts 275°
2026-05-05 21:25 50.50228 8.03692 33724 ft 436 kts 275°
2026-05-05 21:26 50.50677 7.98988 33368 ft 434 kts 275°
2026-05-05 21:26 50.51121 7.94308 33012 ft 433 kts 275°
2026-05-05 21:26 50.51562 7.89644 32673 ft 431 kts 276°
2026-05-05 21:26 50.51999 7.84998 32324 ft 428 kts 276°
2026-05-05 21:27 50.52431 7.80384 31980 ft 426 kts 276°
2026-05-05 21:27 50.52860 7.75789 31640 ft 424 kts 276°
2026-05-05 21:27 50.53288 7.71209 31304 ft 422 kts 276°
2026-05-05 21:27 50.53713 7.66654 30974 ft 421 kts 276°
2026-05-05 21:28 50.54134 7.62112 30646 ft 419 kts 276°
2026-05-05 21:28 50.54552 7.57588 30320 ft 417 kts 276°
2026-05-05 21:28 50.54965 7.53080 30003 ft 416 kts 276°
2026-05-05 21:28 50.55373 7.48590 29650 ft 414 kts 276°
2026-05-05 21:29 50.55769 7.44124 29299 ft 411 kts 274°
2026-05-05 21:29 50.55901 7.39681 28927 ft 405 kts 268°
2026-05-05 21:29 50.55935 7.35273 28571 ft 401 kts 268°
2026-05-05 21:29 50.55968 7.30902 28213 ft 398 kts 268°
2026-05-05 21:30 50.56000 7.26564 27859 ft 395 kts 268°
2026-05-05 21:30 50.56029 7.22264 27512 ft 392 kts 268°
2026-05-05 21:30 50.56057 7.17992 27171 ft 389 kts 268°
2026-05-05 21:30 50.56049 7.13752 26828 ft 386 kts 267°
2026-05-05 21:31 50.55979 7.09545 26492 ft 383 kts 266°
2026-05-05 21:31 50.55872 7.05376 26157 ft 380 kts 265°
2026-05-05 21:31 50.55753 7.01231 25827 ft 378 kts 265°
2026-05-05 21:31 50.55637 6.97122 25509 ft 375 kts 265°
2026-05-05 21:32 50.55530 6.93041 25194 ft 372 kts 266°
2026-05-05 21:32 50.55429 6.88993 24877 ft 370 kts 266°
2026-05-05 21:32 50.55331 6.84967 24560 ft 367 kts 266°
2026-05-05 21:32 50.55234 6.80972 24249 ft 364 kts 266°
2026-05-05 21:33 50.55140 6.77004 23942 ft 362 kts 266°
2026-05-05 21:33 50.55045 6.73061 23640 ft 359 kts 266°
2026-05-05 21:33 50.55050 6.69147 23323 ft 358 kts 273°
2026-05-05 21:33 50.55412 6.65280 22974 ft 357 kts 279°
2026-05-05 21:34 50.55882 6.61462 22592 ft 355 kts 279°
2026-05-05 21:34 50.56341 6.57667 22214 ft 352 kts 279°
2026-05-05 21:34 50.56797 6.53896 21843 ft 350 kts 279°
2026-05-05 21:34 50.57249 6.50145 21482 ft 348 kts 279°
2026-05-05 21:35 50.57697 6.46415 21120 ft 346 kts 279°
2026-05-05 21:35 50.58143 6.42707 20767 ft 344 kts 279°
2026-05-05 21:35 50.58585 6.39027 20408 ft 342 kts 279°
2026-05-05 21:35 50.59021 6.35364 20058 ft 339 kts 279°
2026-05-05 21:36 50.59451 6.31722 19716 ft 337 kts 279°
2026-05-05 21:36 50.59877 6.28110 19375 ft 335 kts 279°
2026-05-05 21:36 50.60303 6.24514 19039 ft 333 kts 279°
2026-05-05 21:36 50.60727 6.20944 18702 ft 331 kts 279°
2026-05-05 21:37 50.61146 6.17394 18368 ft 329 kts 279°
2026-05-05 21:37 50.61560 6.13861 18042 ft 327 kts 279°
2026-05-05 21:37 50.61970 6.10351 17659 ft 325 kts 279°
2026-05-05 21:37 50.62378 6.06863 17291 ft 323 kts 279°
2026-05-05 21:38 50.62784 6.03395 16933 ft 321 kts 279°
2026-05-05 21:38 50.63184 5.99950 16576 ft 319 kts 279°
2026-05-05 21:38 50.63450 5.97632 16372 ft 317 kts 279°
2026-05-05 21:38 50.63840 5.94222 16096 ft 316 kts 279°
2026-05-05 21:39 50.64229 5.90826 15817 ft 314 kts 279°
2026-05-05 21:39 50.64621 5.87444 15541 ft 313 kts 279°
2026-05-05 21:39 50.65214 5.84148 15264 ft 314 kts 290°
2026-05-05 21:39 50.66164 5.81053 14993 ft 313 kts 296°
2026-05-05 21:40 50.67159 5.78003 14731 ft 312 kts 295°
2026-05-05 21:40 50.68142 5.74956 14464 ft 311 kts 295°
2026-05-05 21:40 50.69115 5.71917 14198 ft 310 kts 295°
2026-05-05 21:40 50.70085 5.68882 13935 ft 309 kts 295°
2026-05-05 21:41 50.71051 5.65866 13674 ft 308 kts 295°
2026-05-05 21:41 50.72015 5.62854 13384 ft 307 kts 295°
2026-05-05 21:41 50.72975 5.59850 13099 ft 306 kts 295°
2026-05-05 21:41 50.73930 5.56858 12804 ft 305 kts 295°
2026-05-05 21:42 50.74881 5.53869 12513 ft 304 kts 295°
2026-05-05 21:42 50.75826 5.50901 12221 ft 302 kts 296°
2026-05-05 21:42 50.76768 5.47947 11946 ft 300 kts 296°
2026-05-05 21:42 50.77702 5.45009 11667 ft 299 kts 296°
2026-05-05 21:43 50.78630 5.42085 11390 ft 297 kts 296°
2026-05-05 21:43 50.79552 5.39177 11115 ft 295 kts 296°
2026-05-05 21:43 50.80470 5.36283 10839 ft 294 kts 297°
2026-05-05 21:43 50.81383 5.33405 10572 ft 292 kts 297°
2026-05-05 21:44 50.82292 5.30538 10303 ft 291 kts 297°
2026-05-05 21:44 50.83195 5.27682 10045 ft 289 kts 297°
2026-05-05 21:44 50.84089 5.24841 9781 ft 288 kts 297°
2026-05-05 21:44 50.84977 5.22010 9496 ft 287 kts 297°
2026-05-05 21:45 50.85865 5.19187 9212 ft 286 kts 298°
2026-05-05 21:45 50.86665 5.16314 8908 ft 286 kts 288°
2026-05-05 21:45 50.87009 5.13211 8619 ft 288 kts 274°
2026-05-05 21:45 50.86836 5.10045 8326 ft 289 kts 258°
2026-05-05 21:46 50.86223 5.07022 8060 ft 288 kts 251°
2026-05-05 21:46 50.85552 5.04039 7774 ft 287 kts 251°
2026-05-05 21:46 50.84885 5.01071 7498 ft 286 kts 251°
2026-05-05 21:46 50.84219 4.98116 7222 ft 285 kts 251°
2026-05-05 21:47 50.83555 4.95166 6949 ft 284 kts 251°
2026-05-05 21:47 50.82894 4.92227 6679 ft 284 kts 251°
2026-05-05 21:47 50.82232 4.89290 6409 ft 283 kts 251°
2026-05-05 21:47 50.81570 4.86363 6138 ft 282 kts 251°
2026-05-05 21:48 50.80911 4.83455 5848 ft 281 kts 251°
2026-05-05 21:48 50.80254 4.80557 5552 ft 280 kts 251°
2026-05-05 21:48 50.79596 4.77661 5283 ft 279 kts 250°
2026-05-05 21:48 50.78939 4.74776 5006 ft 279 kts 250°
2026-05-05 21:49 50.78283 4.71892 4725 ft 279 kts 251°
2026-05-05 21:49 50.77626 4.69013 4446 ft 279 kts 251°
2026-05-05 21:49 50.76967 4.66135 4158 ft 280 kts 251°
2026-05-05 21:49 50.76307 4.63254 3939 ft 275 kts 251°
2026-05-05 21:50 50.75665 4.60462 3731 ft 267 kts 251°
2026-05-05 21:50 50.75035 4.57736 3508 ft 262 kts 251°
2026-05-05 21:50 50.74420 4.55069 3277 ft 256 kts 251°
2026-05-05 21:50 50.73819 4.52464 3095 ft 248 kts 252°
2026-05-05 21:51 50.73273 4.49927 2954 ft 240 kts 260°
2026-05-05 21:51 50.73346 4.47429 2826 ft 221 kts 294°
2026-05-05 21:51 50.74122 4.45499 2727 ft 199 kts 323°
2026-05-05 21:51 50.75242 4.44440 2595 ft 180 kts 348°
2026-05-05 21:52 50.77576 4.44626 2400 ft 167 kts 18°
2026-05-05 21:52 50.78702 4.45081 2247 ft 167 kts 18°
2026-05-05 21:52 50.79826 4.45536 2040 ft 167 kts 18°
2026-05-05 21:53 50.80947 4.45990 1820 ft 162 kts 17°
2026-05-05 21:53 50.81987 4.46410 1609 ft 147 kts 17°
2026-05-05 21:53 50.82937 4.46796 1414 ft 136 kts 16°
2026-05-05 21:53 50.83834 4.47162 1236 ft 132 kts 17°
2026-05-05 21:54 50.84714 4.47520 1058 ft 130 kts 17°
2026-05-05 21:54 50.85601 4.47881 875 ft 134 kts 15°
2026-05-05 21:54 50.86504 4.48249 671 ft 135 kts 15°
2026-05-05 21:54 50.87421 4.48622 493 ft 135 kts 14°
2026-05-05 21:55 50.88351 4.49008 319 ft 142 kts 16°
2026-05-05 21:55 50.89280 4.49377 184 ft 123 kts 14°
2026-05-05 21:55 50.89949 4.49660 183 ft 71 kts 14°
2026-05-05 21:55 50.90199 4.49712 185 ft 26 kts 355°
2026-05-05 21:56 50.90373 4.49636 189 ft 26 kts 330°
2026-05-05 21:56 50.90354 4.49407 185 ft 23 kts 246°
2026-05-05 21:56 50.90286 4.49168 192 ft 24 kts 246°
2026-05-05 21:56 50.90219 4.48940 194 ft 22 kts 246°
2026-05-05 21:57 50.90181 4.48785 185 ft 9 kts 277°
2026-05-05 21:57 50.90231 4.48742 187 ft 8 kts 340°
2026-05-05 21:57 50.90280 4.48711 186 ft 7 kts 336°
2026-05-05 21:57 50.90311 4.48689 185 ft 1 kts 335°
2026-05-05 21:58 50.90314 4.48687 185 ft 0 kts 334°